Back to catalog

SGDC

AliveCommunicationsGEO
NORAD 42692·PAYLOAD·🇧🇷 Brazil

Launched May 4, 2017 from Guiana Space Centre

Loading…

TLE

FreshSource: Space-Track

Epoch: Sep 14, 2026, 05:26 UTC

1 42692U 17023B   26257.22680059  .00000000  00000-0  00000-0 0  9990
2 42692   0.0181 145.3085 0002252  31.6220 183.0709  1.00270572 34296

Track SGDC in real time with AllMySat

Download on the App Store